Dewpoint
56 56 56 56 56 56 56 56 56 56 56 56 56 56 56 56 56 55 55 55 56 56 56 56 56 55 55 55 56 56 56 52 50 49 50 41 48 53 62 59 63 63 68 63 63 59 59 61 61 63 61 60 58 60 62 64 65 65 61 60 58 58 57 59 58 58 60 60 62 63 64 62 61 64 65 65 64 64 63 63 63 63 64 65 65 66 66 67
56 56 56 55 55 55 55 55 55 55 55 55 55 55 55 55 55 55 55 55 56 56 56 56 55 55 55 56 56 57 54 52 48 47 42 45 55 58 60 66 64 63 65 59 52 49 55 60 58 58 57 56 56 57 62 62 65 62 62 61 58 60 60 61 61 61 61 61 62 64 64 63 62 64 64 61 62 62 62 61 62 63 64 66 66 66 66 67
55 56 55 55 55 55 55 55 55 55 55 56 55 55 55 55 54 54 55 55 56 55 55 55 55 55 56 56 56 57 54 47 50 42 33 57 58 61 62 66 66 69 54 54 50 47 50 58 56 56 55 55 56 56 61 61 65 63 61 60 60 60 63 62 61 63 64 63 62 63 63 63 63 63 64 61 60 61 59 59 61 61 62 64 65 66 66 66
55 55 55 55 55 55 55 55 56 56 56 56 56 56 56 56 55 56 56 56 55 55 55 55 55 55 56 56 56 56 51 50 29 30 41 60 61 64 63 68 67 68 56 53 49 44 50 57 54 56 55 56 56 59 59 63 61 63 60 59 61 62 61 63 63 64 63 64 63 64 63 63 64 65 64 62 59 60 62 60 60 60 62 63 64 65 65 65
55 55 55 55 55 55 55 55 55 55 55 55 55 55 55 55 55 55 55 55 55 55 55 55 55 55 56 57 57 55 49 20 3 40 43 68 63 66 65 68 68 60 53 50 46 44 52 53 53 55 57 56 57 59 59 62 62 63 60 61 63 63 62 65 64 65 63 65 65 64 61 62 65 65 63 60 58 58 61 61 61 62 62 63 64 64 65 65
55 55 55 55 55 55 55 55 55 55 55 55 55 55 55 55 55 55 55 55 55 55 55 55 55 56 56 57 56 54 41 -20 23 26 65 69 65 67 67 70 66 54 50 46 43 43 49 51 54 56 57 57 56 56 59 59 62 58 59 61 62 62 64 65 64 65 65 65 63 61 62 64 64 63 63 62 62 63 63 63 63 63 64 64 65 65 64 64
55 55 55 55 55 55 55 55 55 55 55 55 55 55 55 55 55 55 55 55 55 55 55 55 56 56 56 57 55 47 24 16 31 29 74 68 67 67 71 67 63 50 47 46 44 40 45 50 55 57 57 56 56 56 57 60 62 61 58 61 63 64 64 66 64 66 64 65 64 65 63 64 63 61 64 63 63 63 64 64 64 64 65 65 64 64 64 64
55 55 55 55 55 55 55 55 55 55 55 55 55 55 55 55 55 55 55 55 54 55 55 55 56 56 57 52 45 23 19 8 18 37 72 65 65 68 69 54 45 48 44 45 44 39 45 52 56 56 57 56 51 55 54 57 61 58 57 61 64 65 65 65 64 64 65 66 65 65 64 64 63 63 63 64 64 63 64 64 64 64 64 65 65 64 65 65
55 55 55 55 55 55 55 55 55 55 55 55 55 55 55 55 55 54 54 54 54 54 55 55 55 56 56 55 33 16 6 18 34 66 64 61 65 64 60 52 47 46 43 46 47 45 48 53 55 57 55 53 49 49 50 55 57 60 58 62 63 63 65 65 65 65 65 66 65 64 64 64 65 64 64 64 64 63 64 64 64 64 63 64 64 65 65 64
55 55 55 55 55 55 55 55 55 55 55 55 55 55 55 55 54 54 54 54 55 55 55 55 55 56 55 50 29 -0 5 42 61 66 62 62 61 61 57 54 44 38 41 44 47 47 47 51 56 55 53 53 48 46 45 53 53 61 62 62 62 63 64 66 65 64 66 65 65 63 63 64 65 65 59 64 64 64 63 63 63 63 63 63 64 65 65 64
55 55 55 55 55 55 55 55 55 55 55 55 55 55 54 54 54 54 54 54 55 55 54 55 55 56 48 49 9 2 17 54 58 63 62 58 54 54 51 48 43 35 37 38 45 48 47 51 52 53 52 48 47 44 49 53 60 62 62 62 62 63 63 65 66 65 64 64 66 64 63 63 63 62 59 62 63 63 63 63 63 63 63 63 64 65 65 65
55 55 55 55 55 55 55 55 55 55 55 55 54 54 54 54 54 54 54 54 54 55 55 56 55 55 53 44 30 15 45 50 59 60 61 55 49 50 48 44 41 36 35 36 38 44 38 49 49 55 49 46 43 42 50 58 61 62 61 59 61 62 62 64 65 65 65 64 65 65 62 61 61 61 63 62 63 63 63 62 62 62 63 63 64 64 65 65
55 55 55 55 55 55 55 55 55 55 55 54 54 54 54 54 54 54 54 53 54 54 55 56 56 53 49 22 26 35 38 52 57 58 52 46 48 48 43 37 35 33 33 32 32 39 35 36 46 53 45 45 43 34 37 40 61 60 60 59 58 59 60 62 64 65 64 65 66 66 56 57 61 62 62 63 63 63 62 62 62 62 63 63 64 64 64 65
55 56 55 55 55 55 55 55 55 55 54 54 54 54 54 54 54 53 54 53 54 55 56 57 54 53 37 16 15 25 33 42 54 51 48 46 45 46 41 39 36 36 34 34 31 31 32 32 36 41 43 44 41 42 35 47 60 55 59 58 56 55 57 62 63 64 63 65 66 64 56 58 61 62 63 63 63 62 61 61 62 62 62 63 63 64 64 64
55 55 56 56 55 55 55 55 55 54 54 54 53 53 53 53 53 54 54 54 55 56 57 58 55 50 38 31 34 40 56 51 50 50 46 44 43 45 44 40 37 36 35 34 34 36 30 31 34 45 46 37 40 36 49 55 57 57 54 53 56 52 57 61 63 63 61 62 65 62 56 59 61 61 64 64 63 63 61 61 61 61 62 62 63 63 63 63
56 56 56 55 55 55 55 55 55 54 54 53 53 53 53 53 54 55 56 56 56 57 56 52 52 47 37 30 23 45 45 39 39 48 48 43 42 42 44 41 39 37 36 36 33 33 32 28 33 39 41 33 32 35 51 54 55 56 53 53 52 54 55 58 61 63 62 63 63 62 58 59 61 61 63 63 62 62 61 60 60 62 62 62 62 63 63 63
56 56 56 55 55 55 55 55 55 54 53 53 52 53 53 54 55 57 57 58 58 57 56 47 50 53 8 22 27 28 34 38 43 48 46 39 35 42 42 41 39 38 35 32 32 33 34 29 35 41 31 35 29 42 48 49 51 53 50 53 54 53 55 54 60 62 62 61 60 62 61 60 60 61 64 62 63 63 61 60 61 62 62 63 63 63 63 63
55 55 55 55 55 55 55 55 54 54 53 52 52 53 54 56 58 58 57 56 56 56 55 55 53 40 13 9 20 30 32 31 36 43 41 34 40 40 38 31 37 37 32 28 27 33 35 36 31 35 27 28 28 30 41 38 47 51 49 52 52 54 56 54 55 60 61 61 59 61 61 60 60 61 63 62 62 63 62 61 62 62 62 62 62 63 63 63
55 55 55 55 55 55 54 54 54 53 53 53 54 54 55 57 55 54 53 55 44 38 30 39 32 15 2 13 21 28 30 31 36 39 34 35 36 35 31 33 37 30 23 24 27 34 35 31 30 32 28 26 26 26 28 31 49 52 53 52 53 52 54 54 57 60 60 58 58 60 60 60 60 61 63 62 61 61 61 62 62 62 62 62 62 62 62 63
55 55 55 55 55 54 54 54 53 53 52 52 53 53 53 44 40 44 47 47 39 31 30 31 34 32 31 31 29 32 33 33 32 34 32 33 33 30 28 32 30 30 21 21 30 33 37 38 32 31 28 26 26 26 27 29 44 47 51 52 53 54 54 56 58 59 60 58 57 57 60 61 59 60 62 62 61 60 60 61 61 62 62 61 60 60 61 62
55 55 55 55 54 54 54 54 53 52 51 50 50 45 34 35 32 30 34 41 43 42 37 35 34 31 30 32 33 34 31 33 33 33 33 40 30 29 26 28 26 23 32 34 37 31 32 37 31 28 27 26 26 27 24 25 45 50 49 50 52 52 53 56 57 60 60 57 57 57 58 59 60 61 62 63 61 59 59 60 61 61 61 61 61 60 60 61
55 55 55 54 54 54 54 53 52 51 51 51 49 36 33 36 36 36 35 31 33 39 42 40 39 36 36 36 35 36 36 32 31 32 35 32 28 28 30 29 32 28 29 28 32 33 31 32 31 28 27 26 25 26 25 25 22 32 45 47 47 52 56 58 59 59 59 58 57 57 57 58 60 61 62 62 61 60 59 60 60 61 61 62 61 60 60 60
55 55 55 54 54 53 53 52 51 51 49 48 43 37 36 38 41 40 36 33 32 35 38 39 36 37 36 38 38 35 32 32 32 32 34 33 29 32 29 30 34 28 27 30 34 30 32 30 29 27 25 23 23 22 20 19 20 25 35 42 43 53 51 53 58 59 58 57 57 57 57 58 61 62 61 62 62 64 65 63 61 61 61 61 60 60 60 59
55 55 54 54 54 53 52 50 50 50 50 46 42 40 40 41 39 37 35 31 29 32 34 36 35 36 35 31 35 33 31 32 32 30 45 32 32 33 30 29 27 33 29 30 29 30 29 25 27 26 24 25 24 22 21 21 21 17 31 32 47 54 52 53 56 56 56 57 59 57 56 57 59 59 60 62 63 64 63 63 63 61 61 62 62 62 61 59
54 54 54 54 53 53 50 49 49 47 48 45 44 45 45 48 45 38 33 31 24 21 29 32 39 38 33 38 38 33 35 32 33 33 42 32 30 30 29 27 32 30 24 26 27 28 25 24 25 25 24 24 24 23 21 21 22 18 19 24 44 53 53 55 56 55 54 55 58 54 52 53 56 58 58 60 61 61 62 61 61 61 61 61 61 61 61 60
54 54 54 54 53 52 50 46 43 45 44 40 38 42 44 42 42 41 32 26 18 19 23 24 27 19 29 28 37 34 30 28 30 31 37 32 43 30 29 27 29 29 24 24 26 27 26 24 23 22 22 23 23 23 23 21 21 20 20 27 36 51 54 55 55 54 51 49 53 56 49 47 55 56 58 59 59 59 62 61 60 61 61 60 61 62 60 60
54 54 54 53 53 51 42 35 42 44 35 36 40 42 42 42 48 36 31 21 20 20 19 22 20 17 19 21 33 29 24 25 27 34 35 45 31 33 28 27 28 28 26 25 27 24 23 22 21 22 22 21 20 21 21 21 19 20 19 28 39 52 54 54 54 52 51 54 55 56 52 49 49 53 57 59 58 58 60 60 60 60 61 59 60 60 60 59
54 54 53 52 51 51 46 49 44 35 32 36 44 43 44 48 45 39 31 17 14 21 16 16 19 20 14 16 26 22 24 23 26 28 29 32 35 29 28 27 27 27 26 25 24 24 22 20 20 20 21 19 19 20 22 20 19 19 22 35 51 50 53 54 52 50 52 51 53 53 54 48 47 53 56 58 58 58 58 59 60 61 60 60 61 59 59 58
54 53 53 52 51 50 50 49 44 36 37 42 45 43 41 45 36 35 29 12 14 14 19 16 17 16 16 17 19 17 18 19 20 22 26 28 26 28 26 28 29 27 24 25 21 23 22 22 21 20 19 18 19 20 21 20 18 24 27 47 43 47 53 52 50 50 52 49 48 50 52 46 45 51 54 57 57 56 57 58 58 60 60 61 61 60 59 58
53 53 52 52 50 51 51 50 46 41 49 47 45 47 44 41 37 28 17 10 14 10 13 15 14 13 15 14 13 15 18 19 22 26 26 31 24 19 21 28 26 26 24 20 23 24 23 25 25 21 20 19 21 20 20 20 22 34 35 46 48 50 54 52 53 53 51 46 43 50 51 48 43 51 53 55 55 56 57 58 59 60 60 60 61 60 59 58
52 52 51 51 48 47 49 39 39 45 47 48 46 42 40 39 29 21 13 10 17 15 13 13 12 13 11 15 20 13 18 14 23 27 26 24 24 23 18 21 23 20 20 20 21 20 16 21 25 20 22 20 20 18 20 20 35 37 39 43 44 48 52 50 50 51 48 42 45 50 51 50 43 46 54 56 57 57 57 57 58 59 59 60 61 60 60 60
51 50 51 51 49 51 37 31 38 43 48 48 45 42 38 29 22 17 14 24 9 11 9 10 12 13 13 13 12 13 17 12 17 25 25 25 25 24 19 20 24 22 21 21 20 16 16 16 16 18 40 17 17 15 17 19 29 33 39 40 35 44 46 46 48 47 43 40 43 47 51 49 48 48 49 54 57 57 58 58 59 59 59 60 61 61 62 61
50 50 50 51 51 49 49 46 50 51 50 49 41 39 25 25 16 19 22 19 10 14 10 12 11 12 13 11 10 12 12 11 13 22 19 18 25 22 17 17 20 22 21 21 18 14 15 16 16 15 22 26 15 13 16 15 23 23 39 36 38 42 39 39 42 43 41 41 44 48 52 47 50 49 53 53 55 58 58 59 59 60 61 61 61 62 63 62
50 50 51 51 51 50 50 54 52 49 44 48 41 26 26 18 13 40 25 25 12 14 14 11 11 12 12 8 9 11 10 11 15 20 17 19 17 23 18 14 16 15 17 19 13 10 12 12 13 17 12 25 16 13 15 16 16 17 34 39 31 40 36 36 39 38 36 41 45 52 49 49 46 49 53 55 56 57 57 58 59 60 60 61 61 62 63 63
50 50 51 52 52 52 51 51 51 49 44 39 29 30 23 22 23 18 15 15 15 14 12 13 14 11 11 11 12 11 11 12 14 15 15 19 17 15 13 13 16 15 15 15 17 16 11 12 15 20 22 21 16 15 19 17 16 16 25 38 39 36 41 36 41 39 40 42 44 48 47 48 48 55 56 59 59 59 58 58 59 59 60 61 61 61 62 63
50 50 50 49 51 51 51 51 50 47 39 32 29 27 17 19 17 18 16 18 15 14 14 12 13 10 13 13 17 10 9 13 12 14 13 15 16 16 16 14 14 13 12 15 24 11 19 13 18 21 22 22 17 24 22 17 15 18 23 30 33 40 40 41 42 42 42 41 42 47 45 47 50 52 57 59 60 60 59 58 59 59 60 61 60 61 61 63
52 51 44 48 48 51 51 50 48 44 41 30 28 22 27 29 24 19 31 17 14 15 13 9 12 12 11 10 14 15 11 11 11 14 15 14 16 17 16 17 17 15 12 14 12 18 13 11 17 18 15 19 23 25 21 23 23 20 18 25 31 35 38 38 34 42 39 36 39 43 41 44 44 41 57 57 58 58 60 59 59 62 61 61 61 62 63 64
52 51 52 48 42 49 50 49 45 43 39 36 32 36 42 18 23 20 19 18 15 18 17 17 15 14 15 15 11 14 14 8 11 16 14 17 14 17 17 17 18 18 19 17 12 18 18 12 15 18 18 19 22 25 23 25 26 20 16 27 23 30 32 41 38 36 37 36 37 42 45 45 47 45 53 55 56 57 59 60 61 60 60 60 61 64 66 66
51 43 43 39 43 48 48 48 43 45 39 33 33 26 27 28 28 20 20 18 16 20 16 17 15 19 16 15 15 16 17 7 13 17 17 16 15 17 16 18 18 19 21 16 12 22 23 15 16 20 18 18 22 23 21 22 23 25 27 22 25 25 29 37 32 40 36 38 36 41 44 41 48 49 52 54 57 58 59 59 60 60 60 61 62 64 66 66
45 40 34 40 47 50 51 47 38 41 37 22 28 27 29 22 21 21 20 22 18 18 18 18 21 18 20 18 16 15 20 17 16 17 17 17 15 17 15 18 16 17 21 24 20 23 21 27 17 17 20 19 22 23 20 22 21 23 24 22 25 29 30 36 38 38 33 37 38 38 40 42 50 52 56 57 57 58 59 60 60 60 61 62 64 65 66 66
47 44 41 43 46 47 42 38 33 31 34 29 31 26 25 30 23 20 21 22 19 21 19 19 19 18 19 20 18 20 20 20 19 15 15 14 15 18 17 16 18 16 20 19 24 25 23 23 20 21 18 18 18 18 18 21 22 23 24 23 23 28 30 29 30 38 42 36 37 35 34 46 51 54 56 56 57 59 60 61 61 61 62 62 63 64 64 65
47 35 35 43 46 40 36 32 34 34 31 26 21 25 22 42 21 22 23 25 21 20 22 22 23 22 23 21 20 23 22 20 20 18 16 13 16 16 17 20 20 19 17 20 22 25 31 30 25 21 17 17 19 23 26 24 20 19 22 23 24 26 32 25 26 36 42 42 42 43 37 46 53 56 57 57 58 60 61 61 61 62 63 63 63 64 65 65
44 35 41 49 44 37 40 35 46 39 29 26 29 20 19 22 22 23 25 26 23 23 23 22 22 23 25 23 25 25 23 22 22 17 17 17 17 19 19 21 23 17 17 20 21 31 45 34 32 25 29 21 22 22 24 22 17 17 19 20 21 23 26 26 26 40 38 45 40 40 36 45 53 59 58 58 61 61 61 62 62 62 63 63 64 65 65 65
46 46 43 47 44 40 34 25 25 26 36 27 24 21 21 23 24 25 26 27 26 26 23 25 23 23 25 28 28 28 28 21 25 23 21 22 21 21 28 24 29 32 26 20 28 31 29 35 34 24 21 20 17 21 18 23 22 22 20 21 27 34 31 37 44 46 41 43 42 36 32 44 54 58 59 59 59 60 60 61 62 61 62 63 63 64 65 65
47 44 47 48 44 34 28 30 31 28 27 25 23 22 22 22 22 24 26 27 28 30 28 27 27 28 29 30 30 30 29 24 26 26 20 27 25 32 25 27 30 37 46 43 45 36 32 31 35 20 17 17 17 18 19 22 21 23 23 21 29 38 41 38 31 42 32 48 46 38 41 51 55 58 58 59 59 59 59 60 61 61 61 62 63 63 64 64
38 36 36 36 40 35 35 34 28 27 30 32 26 21 21 21 21 21 26 26 27 30 30 31 31 30 31 30 29 29 28 28 27 28 30 25 28 29 27 30 28 35 49 49 45 39 37 37 37 38 31 22 25 28 29 32 25 18 24 31 33 32 38 39 45 39 28 45 43 45 48 52 53 55 57 57 58 58 58 59 60 60 60 61 62 63 63 64
43 42 41 37 40 35 33 36 33 28 24 33 31 22 21 20 21 21 23 28 28 29 29 27 27 31 32 30 30 27 31 28 32 30 27 27 28 28 30 30 26 36 54 40 41 33 41 30 30 34 28 27 25 26 22 26 23 28 32 33 37 38 37 39 31 28 50 41 38 49 53 51 51 55 57 57 57 57 58 58 58 59 60 61 61 62 63 63
40 40 44 46 29 34 35 30 39 32 32 29 31 24 22 23 23 23 21 22 25 30 28 29 23 25 29 31 32 29 32 32 32 27 30 28 30 26 22 25 23 33 36 25 33 34 32 26 32 30 25 25 24 22 22 23 22 26 28 30 33 40 39 37 39 41 46 32 26 49 53 52 52 53 56 57 57 57 57 58 58 59 59 60 61 61 62 62
45 44 46 48 39 38 37 42 42 34 38 37 38 28 27 25 24 23 22 24 29 28 29 28 23 22 26 33 34 33 38 28 26 34 31 28 26 29 25 25 23 23 24 28 30 39 35 31 36 34 31 27 29 26 22 19 19 25 26 30 34 37 44 42 42 42 45 48 45 51 54 52 52 53 56 57 57 57 58 58 59 59 59 60 60 61 61 61
46 45 46 47 48 47 47 35 31 29 28 38 33 31 29 30 25 27 27 28 30 28 31 24 23 23 24 28 40 32 29 31 29 29 29 30 28 31 27 26 23 24 24 26 29 34 29 31 41 35 28 28 29 32 29 21 23 25 27 33 34 34 40 45 44 45 47 49 50 51 53 52 54 55 56 57 57 57 57 57 58 59 59 59 59 59 60 61
50 49 51 49 40 41 47 38 35 38 34 35 31 34 29 27 26 29 26 26 28 28 29 25 24 27 28 28 27 25 27 34 33 28 27 27 25 26 25 25 24 25 27 28 31 33 32 28 35 37 25 22 25 27 29 22 22 23 29 35 35 34 36 41 43 47 46 48 51 51 50 51 54 56 56 57 56 56 56 57 57 58 58 59 59 59 60 60
53 52 53 49 42 43 36 39 34 32 27 31 31 36 31 26 29 28 27 25 25 29 30 28 32 26 30 31 28 27 27 27 27 27 29 26 25 27 27 25 23 26 28 26 36 32 36 32 30 34 30 24 24 27 29 27 19 17 27 35 38 38 38 40 45 50 49 49 49 47 48 54 54 56 55 55 56 56 56 56 57 58 59 58 58 58 58 59